Regional Weather Roundup
Issued by NWS State College, PA

Home | Current Version | Previous Version | Text Only | Print | Product List | Glossary On
Versions: 1 2 3 4 5 6 7 8 9 10 11 12 13 14 15 16 17 18 19 20 21 22 23 24 25 26 27 28 29 30 31 32 33 34 35 36 37 38 39 40 41 42 43 44 45 46 47 48 49 50
000
ASUS41 KCTP 210810
RWRCTP

REGIONAL WEATHER ROUNDUP
NATIONAL WEATHER SERVICE STATE COLLEGE PA
300 AM EST FRI NOV 21 2014

Note: "fair" indicates few or no clouds below 12,000 feet with no
significant weather and/or obstructions to visibility.

* = STATION THAT DOES NOT REPORT PRECIPITATION /E.G. RAIN...SNOW...ETC/
    THUNDER OR FOG.

PAZ002>004-007>009-013>016-020>023-029>032-210900-
WESTERN PENNSYLVANIA

CITY           SKY/WX    TMP DP  RH WIND       PRES   REMARKS
ERIE           CLOUDY    25   8  48 W14G28    30.16R WCI  13
MEADVILLE      LGT SNOW  18  14  84 W8        30.14R FOG     WCI   8
FRANKLIN*      MOCLDY    16  10  79 W9        30.15R WCI   4
NEW CASTLE     FLURRIES  18  13  80 W9        30.21R WCI   7
BEAVER COUNTY  NOT AVBL
BUTLER*        PTCLDY    19  10  68 W8        30.19R WCI   9
PITTSBURGH INT CLEAR     19  13  77 W6        30.19R WCI  11
PITTSBURGH     CLEAR     20  10  65 W8        30.19R WCI  10
INDIANA*       CLOUDY    21  14  73 W13       30.19R WCI   9
LATROBE        CLEAR     19  12  73 W6        30.21R WCI  11
WASHINGTON CO* CLEAR     21  10  63 W7        30.22R WCI  13
$$

PAZ004>006-010>012-017>019-024>028-033>037-041-042-045-046-049>053-210900-
CENTRAL PENNSYLVANIA

CITY           SKY/WX    TMP DP  RH WIND       PRES   REMARKS
BRADFORD       CLOUDY    15   9  76 W12       30.02R WCI   2
DUBOIS         LGT SNOW  18  14  84 W12       30.08R FOG     WCI   5
CLEARFIELD     CLOUDY    19  10  68 W13       30.09R WCI   6
JOHNSTOWN      MOCLDY    17   9  70 W14G25    30.07R WCI   3
ALTOONA        MOCLDY    22  10  60 W18G24    30.13R WCI   7
STATE COLLEGE  PTCLDY    21  10  64 W12G17    30.12R WCI   9
WILLIAMSPORT   PTCLDY    24  10  55 W6        30.12R
SELINSGROVE    CLEAR     25  10  53 W7G21     30.14R
FT INDIANTOWN  CLEAR     26   6  42 VRB7      30.15R
CAPITAL CITY   CLEAR     27   7  42 W8        30.17R
HARRISBURG     PTCLDY    27   9  46 W12       30.16R
YORK           CLEAR     26   9  48 W9        30.17R
$$

PAZ038>040-043-044-047-048-054-055-060>062-067>071-210900-
EASTERN PENNSYLVANIA

CITY           SKY/WX    TMP DP  RH WIND       PRES   REMARKS
SCRANTON       PTCLDY    22   8  55 SW6       30.06R WCI  14
MOUNT POCONO   CLOUDY    18   7  62 W13G23    29.97R WCI   5
ALLENTOWN      CLEAR     25   8  48 W9        30.11R
QUAKERTOWN*    SUNNY     27   9  46 W7G22     30.11R
READING        CLEAR     27   8  44 W13G23    30.14R
LANCASTER      CLEAR     23   9  55 W9        30.16R WCI  13
COATESVILLE    SUNNY     25  10  54 W14       30.13R WCI  13
POTTSTOWN      CLEAR     25   8  48 W7        30.14R
BLUE BELL      CLEAR     30  10  43 W6        30.13R
DOYLESTOWN     CLEAR     25   8  48 W12G18    30.11R WCI  14
WILLOW GROVE   NOT AVBL
NORTH PHILA    CLEAR     30   6  36 W10       30.16R
PHILADELPHIA   CLEAR     31   7  36 W14       30.16R
$$


USA.gov is the U.S. government's official web portal to all federal, state and local government web resources and services.